Flag for Canada Weather past 2 weeks in Shawinigan, Quebec, Canada

Now
74 °F

Mild.


Feels Like: 75 °F
Forecast: 63 / 77 °F
Wind: 7 mph from Southwest

Location: Shawinigan CS

Current Time: May 27, 2015 at 11:12:14 AM

Latest Report: May 27, 2015 at 10:00 AM


Visibility: N/A

Pressure: 29.93 "Hg

Humidity: 77%

Dew point: 66 °F

Location of ShawiniganLocation

Historic Weather in Shawinigan — Graph

°F

Shawinigan temperature yesterday

Maximum temperature yesterday: 82 °F (at 6:00 PM)
Minimum temperature yesterday: 58 °F (at 12:00 AM)
Average temperature yesterday: 70 °F

Past Weeks' High & Low Weather Summary

 TemperatureHumidityPressure
High82 °F (May 26, 6:00 PM)99% (May 12, 11:00 AM)30.34 "Hg (May 12, 11:00 AM)
Low34 °F (May 23, 5:00 AM)20% (May 13, 6:00 PM)29.51 "Hg (May 12, 4:00 PM)
Average57 °F60%29.98 "Hg
* Reported May 12 10:00 AM — May 27 10:00 AM, Shawinigan, Weather by CustomWeather, © 2015

Note: Actual official high and low records may vary slightly from our data, if they occured in-between our weather recording intervals... More about our weather records

Advertising

Shawinigan weather history for previous 24 hours

 ConditionsComfort  
Time TempWeatherWind HumidityBarometerVisibility
10:00 AM
Wed, May 27
74 °FMild.7 mph77%29.93 "HgN/A
9:00 AM70 °FMild.5 mph86%29.93 "HgN/A
8:00 AM64 °FMild.2 mph98%29.97 "HgN/A
7:00 AM65 °FMild.3 mph94%29.97 "HgN/A
6:00 AM62 °FCool.2 mph95%29.97 "HgN/A
5:00 AM61 °FCool.1 mph96%29.96 "HgN/A
4:00 AM61 °FCool.1 mph95%29.96 "HgN/A
3:00 AM62 °FCool.1 mph95%29.97 "HgN/A
2:00 AM63 °FMild.1 mph93%29.97 "HgN/A
1:00 AM65 °FMild.2 mph91%29.97 "HgN/A
12:00 AM67 °FMild.1 mph87%29.97 "HgN/A
11:00 PM
Tue, May 26
69 °FMild.5 mph82%29.96 "HgN/A
10:00 PM72 °FMild.5 mph74%29.96 "HgN/A
9:00 PM75 °FMild.7 mph67%29.94 "HgN/A
8:00 PM78 °FWarm.5 mph56%29.93 "HgN/A
7:00 PM81 °FWarm.9 mph50%29.93 "HgN/A
6:00 PM82 °FWarm.12 mph50%29.92 "HgN/A
5:00 PM80 °FWarm.7 mph57%29.92 "HgN/A
4:00 PM81 °FWarm.14 mph53%29.91 "HgN/A
3:00 PM80 °FWarm.13 mph57%29.91 "HgN/A
2:00 PM77 °FWarm.10 mph58%29.93 "HgN/A
1:00 PM78 °FWarm.10 mph53%29.93 "HgN/A
12:00 PM76 °FMild.12 mph69%29.92 "HgN/A
11:00 AM73 °FMild.9 mph72%29.92 "HgN/A
Weather by CustomWeather, © 2015

See weather overviewHow to use our weather pages